When you browse on this site, cookies collect data to enhance your experience and personalize the content and advertising you see.
Visit our Privacy Policy to learn more. By continuing to use the site, you agree to this use of cookies and data.
  • In Österreich
  • Länderverzeichnis
  • Für 7 Tage
  • Wassertemperatur
  • Wetterkarte
  • News
  • Widgets
  • user-avatar
    Anmelden

    Stündliche Wetter Gorzów Wielkopolski

    Heute, 3 April, Freitag

    Zeit Temperatur Niederschläge Wind Luftdruck Luftfeuchtigkeit
    00:00 +5°C° 0 mm 5 m/S 750 mmHg 70%
    01:00 +5°C° 0 mm 5 m/S 750 mmHg 72%
    02:00 +3°C° 0.4 mm 5 m/S 750 mmHg 75%
    03:00 +3°C° 0.4 mm 5 m/S 750 mmHg 77%
    04:00 +3°C° 0.4 mm 5 m/S 750 mmHg 79%
    05:00 +2°C° 0 mm 5 m/S 751 mmHg 78%
    06:00 +2°C° 0 mm 5 m/S 751 mmHg 76%
    07:00 +2°C° 0 mm 6 m/S 752 mmHg 74%
    08:00 +3°C° 0 mm 6 m/S 752 mmHg 69%
    09:00 +4°C° 0 mm 6 m/S 753 mmHg 64%
    10:00 +5°C° 0 mm 7 m/S 753 mmHg 59%
    11:00 +6°C° 0.1 mm 7 m/S 754 mmHg 56%
    12:00 +6°C° 0.1 mm 7 m/S 754 mmHg 53%
    13:00 +8°C° 0.1 mm 7 m/S 755 mmHg 49%
    14:00 +8°C° 0.1 mm 6 m/S 755 mmHg 49%
    15:00 +8°C° 0.1 mm 6 m/S 755 mmHg 49%
    16:00 +8°C° 0.1 mm 6 m/S 755 mmHg 49%
    17:00 +7°C° 0.1 mm 5 m/S 756 mmHg 55%
    18:00 +6°C° 0.1 mm 4 m/S 756 mmHg 61%
    19:00 +5°C° 0.1 mm 3 m/S 757 mmHg 68%
    20:00 +5°C° 0 mm 2 m/S 757 mmHg 70%
    21:00 +5°C° 0 mm 2 m/S 758 mmHg 73%
    22:00 +4°C° 0 mm 2 m/S 758 mmHg 75%
    23:00 +4°C° 0 mm 2 m/S 759 mmHg 77%

    Morgen, 4 April, Samstag

    Zeit Temperatur Niederschläge Wind Luftdruck Luftfeuchtigkeit
    00:00 +3°C° 0 mm 2 m/S 759 mmHg 78%
    01:00 +3°C° 0 mm 2 m/S 760 mmHg 80%
    02:00 +3°C° 0 mm 2 m/S 760 mmHg 82%
    03:00 +2°C° 0 mm 2 m/S 760 mmHg 84%
    04:00 +2°C° 0 mm 2 m/S 761 mmHg 86%
    05:00 +2°C° 0 mm 2 m/S 761 mmHg 84%
    06:00 +2°C° 0 mm 2 m/S 762 mmHg 82%
    07:00 +2°C° 0 mm 2 m/S 763 mmHg 81%
    08:00 +4°C° 0 mm 2 m/S 763 mmHg 72%
    09:00 +5°C° 0 mm 3 m/S 764 mmHg 64%
    10:00 +7°C° 0 mm 3 m/S 764 mmHg 55%
    11:00 +8°C° 0 mm 3 m/S 765 mmHg 52%
    12:00 +9°C° 0 mm 3 m/S 765 mmHg 48%
    13:00 +10°C° 0 mm 3 m/S 765 mmHg 44%
    14:00 +10°C° 0 mm 3 m/S 765 mmHg 44%
    15:00 +10°C° 0 mm 2 m/S 766 mmHg 44%
    16:00 +10°C° 0 mm 2 m/S 766 mmHg 44%
    17:00 +8°C° 0 mm 2 m/S 766 mmHg 50%
    18:00 +8°C° 0 mm 1 m/S 767 mmHg 55%
    19:00 +6°C° 0 mm 1 m/S 767 mmHg 61%
    20:00 +6°C° 0 mm 1 m/S 768 mmHg 62%
    21:00 +5°C° 0 mm 1 m/S 768 mmHg 64%
    22:00 +5°C° 0 mm 1 m/S 769 mmHg 65%
    23:00 +5°C° 0 mm 1 m/S 769 mmHg 68%

    übermorgen, 5 April, Sonntag

    Zeit Temperatur Niederschläge Wind Luftdruck Luftfeuchtigkeit
    00:00 +4°C° 0 mm 1 m/S 770 mmHg 70%
    01:00 +3°C° 0 mm 2 m/S 770 mmHg 72%
    02:00 +2°C° 0 mm 2 m/S 770 mmHg 73%
    03:00 +2°C° 0 mm 2 m/S 770 mmHg 74%
    04:00 +2°C° 0 mm 2 m/S 770 mmHg 74%
    05:00 +2°C° 0 mm 2 m/S 771 mmHg 72%
    06:00 +2°C° 0 mm 3 m/S 771 mmHg 69%
    07:00 +3°C° 0 mm 3 m/S 771 mmHg 66%
    08:00 +5°C° 0 mm 4 m/S 771 mmHg 59%
    09:00 +7°C° 0 mm 4 m/S 771 mmHg 53%
    10:00 +9°C° 0 mm 5 m/S 771 mmHg 47%
    11:00 +10°C° 0 mm 5 m/S 771 mmHg 45%
    12:00 +12°C° 0 mm 5 m/S 771 mmHg 43%
    13:00 +13°C° 0 mm 5 m/S 770 mmHg 41%
    14:00 +13°C° 0 mm 5 m/S 770 mmHg 42%
    15:00 +13°C° 0 mm 6 m/S 769 mmHg 42%
    16:00 +13°C° 0 mm 6 m/S 769 mmHg 43%
    17:00 +10°C° 0 mm 5 m/S 769 mmHg 47%
    18:00 +9°C° 0 mm 5 m/S 769 mmHg 51%
    19:00 +8°C° 0 mm 4 m/S 768 mmHg 55%
    20:00 +7°C° 0 mm 5 m/S 768 mmHg 55%
    21:00 +7°C° 0 mm 5 m/S 768 mmHg 55%
    22:00 +6°C° 0 mm 5 m/S 768 mmHg 55%
    23:00 +6°C° 0 mm 5 m/S 768 mmHg 57%

    6 April, Montag

    Zeit Temperatur Niederschläge Wind Luftdruck Luftfeuchtigkeit
    00:00 +5°C° 0 mm 5 m/S 768 mmHg 59%
    01:00 +5°C° 0 mm 4 m/S 768 mmHg 61%
    02:00 +4°C° 0 mm 4 m/S 768 mmHg 63%
    03:00 +4°C° 0 mm 4 m/S 767 mmHg 65%
    04:00 +3°C° 0 mm 4 m/S 767 mmHg 68%
    05:00 +4°C° 0 mm 4 m/S 767 mmHg 66%
    06:00 +4°C° 0 mm 4 m/S 767 mmHg 65%
    07:00 +5°C° 0 mm 5 m/S 767 mmHg 64%
    08:00 +7°C° 0 mm 5 m/S 767 mmHg 58%
    09:00 +10°C° 0 mm 5 m/S 766 mmHg 52%
    10:00 +13°C° 0 mm 6 m/S 766 mmHg 46%
    11:00 +15°C° 0 mm 6 m/S 766 mmHg 44%
    12:00 +16°C° 0 mm 6 m/S 766 mmHg 42%
    13:00 +17°C° 0 mm 6 m/S 766 mmHg 41%
    14:00 +19°C° 0 mm 6 m/S 766 mmHg 41%
    15:00 +19°C° 0 mm 6 m/S 766 mmHg 42%
    16:00 +19°C° 0 mm 5 m/S 765 mmHg 42%
    17:00 +16°C° 0 mm 5 m/S 766 mmHg 48%
    18:00 +15°C° 0 mm 4 m/S 766 mmHg 54%
    19:00 +13°C° 0 mm 3 m/S 766 mmHg 60%
    20:00 +12°C° 0 mm 3 m/S 766 mmHg 63%
    21:00 +11°C° 0 mm 3 m/S 766 mmHg 66%
    22:00 +11°C° 0 mm 3 m/S 767 mmHg 68%
    23:00 +10°C° 0 mm 3 m/S 767 mmHg 70%

    7 April, Dienstag

    Zeit Temperatur Niederschläge Wind Luftdruck Luftfeuchtigkeit
    00:00 +10°C° 0 mm 3 m/S 767 mmHg 71%
    01:00 +9°C° 0 mm 3 m/S 767 mmHg 73%
    02:00 +9°C° 0 mm 3 m/S 768 mmHg 75%
    03:00 +8°C° 0 mm 3 m/S 768 mmHg 77%
    04:00 +8°C° 0 mm 2 m/S 769 mmHg 80%
    05:00 +8°C° 0 mm 2 m/S 769 mmHg 80%
    06:00 +9°C° 0 mm 2 m/S 770 mmHg 80%
    07:00 +9°C° 0 mm 2 m/S 770 mmHg 80%
    08:00 +12°C° 0 mm 2 m/S 770 mmHg 77%
    09:00 +13°C° 0 mm 2 m/S 771 mmHg 74%
    10:00 +15°C° 0 mm 2 m/S 771 mmHg 71%
    11:00 +16°C° 0 mm 3 m/S 772 mmHg 65%
    12:00 +17°C° 0 mm 3 m/S 772 mmHg 59%
    13:00 +18°C° 0 mm 3 m/S 773 mmHg 52%
    14:00 +18°C° 0 mm 3 m/S 772 mmHg 51%
    15:00 +18°C° 0 mm 3 m/S 772 mmHg 51%
    16:00 +18°C° 0 mm 3 m/S 772 mmHg 50%
    17:00 +16°C° 0 mm 3 m/S 773 mmHg 56%
    18:00 +13°C° 0 mm 3 m/S 773 mmHg 63%
    19:00 +11°C° 0 mm 3 m/S 773 mmHg 69%
    20:00 +11°C° 0 mm 3 m/S 773 mmHg 69%
    21:00 +10°C° 0 mm 2 m/S 773 mmHg 70%
    22:00 +9°C° 0 mm 2 m/S 774 mmHg 71%
    23:00 +8°C° 0 mm 2 m/S 774 mmHg 70%

    8 April, Mittwoch

    Zeit Temperatur Niederschläge Wind Luftdruck Luftfeuchtigkeit
    00:00 +7°C° 0 mm 2 m/S 774 mmHg 69%
    01:00 +7°C° 0 mm 2 m/S 774 mmHg 68%
    02:00 +6°C° 0 mm 2 m/S 774 mmHg 69%
    03:00 +6°C° 0 mm 2 m/S 774 mmHg 69%
    04:00 +6°C° 0 mm 2 m/S 774 mmHg 70%
    05:00 +6°C° 0 mm 2 m/S 774 mmHg 69%
    06:00 +7°C° 0 mm 2 m/S 774 mmHg 68%
    07:00 +8°C° 0 mm 2 m/S 774 mmHg 67%
    08:00 +10°C° 0 mm 2 m/S 774 mmHg 61%
    09:00 +13°C° 0 mm 1 m/S 773 mmHg 56%
    10:00 +16°C° 0 mm 1 m/S 773 mmHg 50%
    11:00 +18°C° 0 mm 1 m/S 773 mmHg 48%
    12:00 +19°C° 0 mm 1 m/S 772 mmHg 46%
    13:00 +21°C° 0 mm 1 m/S 772 mmHg 43%
    14:00 +21°C° 0 mm 1 m/S 771 mmHg 44%
    15:00 +21°C° 0 mm 1 m/S 771 mmHg 44%
    16:00 +21°C° 0 mm 1 m/S 770 mmHg 45%
    17:00 +19°C° 0 mm 1 m/S 770 mmHg 51%
    18:00 +16°C° 0 mm 1 m/S 770 mmHg 58%
    19:00 +15°C° 0 mm 2 m/S 770 mmHg 64%
    20:00 +14°C° 0 mm 2 m/S 770 mmHg 68%
    21:00 +13°C° 0 mm 2 m/S 770 mmHg 71%
    22:00 +12°C° 0 mm 2 m/S 770 mmHg 75%
    23:00 +12°C° 0 mm 2 m/S 770 mmHg 78%
    Mehr zeigen